Weather History for Cincinnati, OH

Change the Weather History Date:

Sunday, November 25, 2012

  Actual Average Record
Temperature  
Mean Temperature 36 °F -  
Max Temperature 48 °F 51 °F 68 °F (1987)
Min Temperature 25 °F 32 °F 8 °F (1950)
Degree Days  
Heating Degree Days 28    
Moisture  
Dew Point 24 °F    
Average Humidity 63    
Maximum Humidity 81    
Minimum Humidity 41    
Precipitation  
Precipitation 0.00 in - - ()
Sea Level Pressure  
Sea Level Pressure 30.04 in    
Wind  
Wind Speed 5 mph (SSW)    
Max Wind Speed 15 mph    
Max Gust Speed 21 mph    
Visibility 10 miles    
Events      
Averages and records for this station are not official NWS values.
T = Trace of Precipitation, MM = Missing Value Source: NWS Daily Summary

Daily Weather History Graph

Daily Weather History Graph

Search for Another Location

Airport:

Trip Planner

Search our weather history database for the weather conditions in past years. The results will help you decide how hot, cold, wet, or windy it might be!

Date:

Astronomy

Nov. 25, 2012 Rise Set
Actual Time 7:32 AM EST 5:17 PM EST
Civil Twilight 7:02 AM EST 5:46 PM EST
Nautical Twilight 6:30 AM EST 6:19 PM EST
Astronomical Twilight 5:58 AM EST 6:51 PM EST
Moon 3:33 PM EST (11/25) 4:46 AM EST (11/25)
Length of Visible Light 10h 43m
Length of Day
9h 44m
Waxing Gibbous, 93% of the Moon is Illuminated
Nov 25
Waxing Gibbous
Nov 28
Full
Dec 6
Last Quarter
Dec 13
New
Dec 20
First Quarter

Hourly Weather History & Observations

Time (EST) Temp. Windchill Dew Point Humidity Pressure Visibility Wind Dir Wind Speed Gust Speed Precip Events Conditions
12:53 AM 25.0 °F - 19.9 °F 81% 30.16 in 10.0 mi Calm Calm - N/A   Clear
1:53 AM 27.0 °F - 21.9 °F 81% 30.13 in 10.0 mi Calm Calm - N/A   Partly Cloudy
2:53 AM 28.0 °F 21.7 °F 21.9 °F 78% 30.13 in 10.0 mi South 5.8 mph - N/A   Clear
3:53 AM 27.0 °F 23.0 °F 19.9 °F 75% 30.14 in 10.0 mi SSW 3.5 mph - N/A   Clear
4:53 AM 25.0 °F 19.3 °F 19.0 °F 78% 30.11 in 10.0 mi SSW 4.6 mph - N/A   Clear
5:53 AM 28.0 °F 20.8 °F 21.0 °F 75% 30.09 in 10.0 mi South 6.9 mph - N/A   Clear
6:53 AM 28.9 °F 19.8 °F 21.0 °F 72% 30.09 in 10.0 mi South 10.4 mph - N/A   Clear
7:53 AM 30.0 °F 21.7 °F 21.9 °F 72% 30.06 in 10.0 mi South 9.2 mph - N/A   Overcast
8:53 AM 30.9 °F 22.8 °F 21.9 °F 69% 30.05 in 10.0 mi SSW 9.2 mph - N/A   Mostly Cloudy
9:53 AM 34.0 °F 26.0 °F 23.0 °F 64% 30.04 in 10.0 mi SSW 10.4 mph - N/A   Clear
10:53 AM 37.9 °F 31.5 °F 23.0 °F 55% 30.03 in 10.0 mi SSW 9.2 mph - N/A   Clear
11:53 AM 39.9 °F 33.9 °F 23.0 °F 51% 30.00 in 10.0 mi SW 9.2 mph - N/A   Clear
12:53 PM 45.0 °F 38.2 °F 24.1 °F 44% 29.97 in 10.0 mi SW 15.0 mph 20.7 mph N/A   Clear
1:53 PM 48.0 °F - 25.0 °F 41% 29.95 in 10.0 mi SW 9.2 mph 18.4 mph N/A   Clear
2:53 PM 46.9 °F - 24.1 °F 41% 29.94 in 10.0 mi SSW 8.1 mph - N/A   Clear
3:53 PM 48.0 °F - 25.0 °F 41% 29.95 in 10.0 mi SSW 4.6 mph - N/A   Clear
4:53 PM 46.9 °F - 25.0 °F 42% 29.96 in 10.0 mi SW 6.9 mph - N/A   Clear
5:53 PM 43.0 °F 39.5 °F 24.1 °F 47% 29.97 in 10.0 mi SSW 5.8 mph - N/A   Clear
6:53 PM 42.1 °F 39.2 °F 28.9 °F 60% 29.99 in 10.0 mi SW 4.6 mph - N/A   Clear
7:53 PM 41.0 °F - 30.0 °F 65% 30.00 in 10.0 mi Calm Calm - N/A   Clear
8:53 PM 39.9 °F - 30.9 °F 70% 30.02 in 10.0 mi Calm Calm - N/A   Clear
9:53 PM 41.0 °F 39.0 °F 28.9 °F 62% 30.03 in 10.0 mi SW 3.5 mph - N/A   Partly Cloudy
10:53 PM 39.0 °F 36.8 °F 30.9 °F 73% 30.04 in 10.0 mi SW 3.5 mph - N/A   Clear
11:53 PM 39.0 °F - 30.0 °F 70% 30.07 in 10.0 mi Calm Calm - N/A   Clear